Welcome to the New NWS' Forecast!
Most changes are behind the scenes, but click here for differences you might notice.

Regional Weather Roundup (RWR)

Issued by Lubbock, TX (LUB)

                            
771 
ASUS44 KLUB 201301
RWRLUB
WEST TEXAS WEATHER ROUNDUP
NATIONAL WEATHER SERVICE LUBBOCK TX
800 AM CDT MON AUG 20 2018

NOTE: "FAIR" INDICATES FEW OR NO CLOUDS BELOW 12,000 FEET WITH NO
SIGNIFICANT WEATHER AND/OR OBSTRUCTIONS TO VISIBILITY.

TXZ004-006>008-010-012-014-016-OKZ002-201400-
TEXAS PANHANDLE/OKLAHOMA PANHANDLE
  
CITY           SKY/WX    TMP DP  RH WIND       PRES   REMARKS
AMARILLO       MOCLDY    63  54  72 NW14      30.22R                  
BORGER         CLEAR     64  53  67 NW7       30.19R                  
CANADIAN       SUNNY     64  57  79 NW12      30.12R                  
DALHART        CLEAR     60  51  72 N10       30.24R HAZE             
DUMAS          CLEAR     58  52  80 NW12      30.21R                  
GUYMON         CLEAR     60  50  69 NW14      30.18R                  
HEREFORD       PTCLDY    62  57  84 CALM      30.24R                  
PERRYTON       CLOUDY    63  56  79 NW15      30.14R                  
$$

TXZ026-029-035-045-048-201400-
SOUTHERN PANHANDLE/SOUTH PLAINS/ROLLING PLAINS
  
CITY           SKY/WX    TMP DP  RH WIND       PRES   REMARKS
CHILDRESS      PTSUNNY   68  60  75 NW9       30.12R                  
LUBBOCK        MOCLDY    67  57  70 N14       30.19R                  
PLAINVIEW      CLOUDY    64  54  68 N18       30.19R                  
SNYDER         CLOUDY    71  65  80 N12       30.13R                  
$$

TXZ052-054-060>062-072-078-127-140-154-169-201400-
PERMIAN BASIN/CONCHO VALLEY/BIG COUNTRY/EDWARDS PLATEAU  
  
CITY           SKY/WX    TMP DP  RH WIND       PRES   REMARKS
ABILENE        MOSUNNY   75  64  68 N16       30.10R                  
BRADY          SUNNY     75  70  83 S7        30.06R                  
JUNCTION       CLEAR     76  73  91 CALM      30.05R                  
MIDLAND        CLOUDY    75  66  73 N17       30.16R                  
ODESSA         MOCLDY    72  67  84 NE16G24   30.17R                  
SAN ANGELO     CLEAR     74  67  78 W5        30.07R                  
SONORA         CLEAR     72  70  94 CALM      30.11R                  
SWEETWATER     CLOUDY    73  64  74 N12       30.16R                  
WINK           MOCLDY    75  66  73 NE20G25   30.12R                  
$$

TXZ055-058-074-075-080-082-201400-
FAR WEST/SOUTHWEST MOUNTAINS/TRANS PECOS
  
CITY           SKY/WX    TMP DP  RH WIND       PRES   REMARKS
ALPINE         PTCLDY    64  60  88 N5        30.23R                  
DRYDEN           N/A     74  70  87 N8        30.03R                  
EL PASO        MOCLDY    78  55  44 N5        30.09R                  
FORT STOCKTON  CLOUDY    74  63  68 SE5       30.10R                  
GUADALUPE PASS PTCLDY    64  62  93 NE31      30.23R                  
MARFA            N/A     63  59  87 N9        30.21                   
PRESIDIO       FAIR      76  65  68 NW6       30.06R                  
$$

TXZ014-016-019-021>030-083-201400
TEXAS TECH WEST TEXAS MESONET/TEXAS PANHANDLE/NORTHERN SOUTH PLAINS
  
CITY           SKY/WX    TMP DP  RH WIND       PRES   REMARKS
ABERNATHY 5ENE   N/A     63  58  84 N7        30.22R                  
AMARILLO 9NNE    N/A     61  56  84 NW9       30.23R                  
AMARILLO 7SSE    N/A     63  54  71 NW14      30.23R                  
AMHERST 1NE      N/A     62  56  79 N6        30.24R                  
BOOTLEG 11WNW    N/A     60  55  83 N2        30.31R                  
CANADIAN 6E      N/A     62  56  79 NW9       30.11R                  
CAPROCK CYN SP   N/A     69  55  61 NW13      30.17R                  
CHILDRESS 2NNE   N/A     68  58  69 NW13      30.12R                  
CLARENDON 2WSW   N/A     64  54  69 N13       30.17R                  
CLAUDE 12SW      N/A     62  54  74 NW15      30.20R                  
DIMMITT 2NE      N/A     61  55  80 N6        30.25R                  
FLOYDADA 2NNE    N/A     65  56  73 N8        30.19R                  
FRIONA 2NE       N/A     60  55  84 N2        30.28R                  
GOODLETT 3W      N/A     69  58  69 W6        30.10R                  
HART 3N          N/A     61  56  83 NW5       30.25R                  
HEREFORD 2NW     N/A     61  53  76 N3        30.27R                  
MCLEAN 1E        N/A     63  53  71 NW15      30.14R                  
MEMPHIS 1NE      N/A     68  57  69 W5        30.15R                  
MULESHOE 2SSW    N/A     63  55  73 NE8       30.25R                  
OLTON 6S         N/A     63  55  73 N10       30.23R                  
PALO DURO SP     N/A     64  53  68 NW15      30.22R                  
PAMPA 2E         N/A     61  55  80 NW16      30.17R                  
PLAINVIEW 1S     N/A     65  56  72 N14       30.22R                  
SILVERTON 7ESE   N/A     65  53  65 NW10      30.19R                  
TULIA 2ENE       N/A     62  54  76 NW3       30.23R                  
TURKEY 2WSW      N/A     69  56  64 W6        30.17R                  
UMBARGER 3NNE    N/A     61  56  82 N12       30.24R                  
$$

TXZ033>036-039>041-045>048-201400
TEXAS TECH WEST TEXAS MESONET/SOUTH PLAINS  
  
CITY           SKY/WX    TMP DP  RH WIND       PRES   REMARKS
AIKEN 3WSW       N/A     64  57  79 N10       30.22R                  
ANDREWS 2NE      N/A     68  65  89 NE15G21   30.19S                  
ANTON 6SSW       N/A     65  57  75 N13       30.22R                  
BROWNFIELD 2S    N/A     69  60  74 N12       30.21S                  
DENVR CTY 7WNW   N/A     65  61  86 NE8       30.22R                  
GAIL 2ESE        N/A     70  64  80 N9        30.15R                  
LAMESA 2SE       N/A     68  64  86 NE7       30.18R                  
LUBBOCK 3WNW     N/A     67  55  65 N7        30.21R                  
MORTON 1ENE      N/A     64  55  74 NE9       30.24R                  
ODONNELL 1N      N/A     69  60  73 N7        30.19S                  
PLAINS 3N        N/A     65  59  82 NE10      30.22S                  
RALLS 1SE        N/A     66  58  76 NW6       30.20R                  
REESE CENTER     N/A     65  56  73 N9        30.22R                  
SEAGRAVES 1SW    N/A     68  64  88 NE5       30.20R                  
SEMINOLE 2NNE    N/A     67  62  85 NE10      30.20R                  
SLATON 2NE       N/A     68  57  68 N12       30.19S                  
SNYDER 3E        N/A     71  60  66 N15G22    30.13R                  
SUNDOWN 8SW      N/A     65  57  75 NE10      30.22S                  
TAHOKA 3NNE      N/A     67  62  83 N6        30.20R                  
WOLFFORTH 6SSW   N/A     66  58  73 N8        30.22R                  
$$

TXZ031-032-036>038-042>044-201400-
TEXAS TECH WEST TEXAS MESONET/ROLLING PLAINS 
  
CITY           SKY/WX    TMP DP  RH WIND       PRES   REMARKS
ASPERMONT 3NE    N/A     71  59  64 N5        30.12R                  
GRAHAM 5SSW      N/A     69  58  69 NW5       30.18R                  
GUTHRIE 10WSW    N/A     69  57  65 NW5       30.12R                  
HASKELL 1NW      N/A     69  60  71 N6        30.11R                  
JAYTON 1SSE      N/A     69  60  71 N6        30.12R                  
KNOX CITY 3NW    N/A     72  59  62 N3        30.11R                  
LK A HENRY 1NW   N/A     71  59  66 NE5       30.15R                  
NORTHFIELD 1S    N/A     70  57  63 NW9       30.14R                  
ODELL 4ENE       N/A     69  60  75 NW13      30.08R                  
PADUCAH 10SW     N/A     68  59  72 NW8       30.13R                  
POST 1NE         N/A     69  58  67 NW6       30.16R                  
RRING SPRGS 3N   N/A     69  58  69 N12       30.16R                  
SEYMOUR 3NW      N/A     71  59  65 NW6       30.09R                  
SPUR 1W          N/A     70  57  63 N3        30.14R                  
WEINERT 2NNE     N/A     70  60  68 N5        30.11R                  
WHITE RVR 6NE    N/A     69  56  62 NW12      30.16R                  
$$

TXZ052-054-060>062-072-078-127-140-154-169-201400-
TEXAS TECH WEST TEXAS MESONET/PERMIAN BASIN/
CONCHO VALLEY/BIG COUNTRY/EDWARDS PLATEAU
  
CITY           SKY/WX    TMP DP  RH WIND       PRES   REMARKS
COYANOSA 2N      N/A     73  63  70 NE8       30.10R                  
JUNCTION 1SSW    N/A     72  70  95 CALM      30.06R                  
MERTZON 3NNE     N/A     70  66  86 NW1       30.12R                  
SAN ANGELO 7NW   N/A     72  64  78 NW5       30.09R                  
STRLNG CT 4WSW   N/A     72  68  88 W2        30.13R                  
ST LAWRNCE 5SW   N/A     73  63  71 NE7       30.13R                  
SWEETWATR 11SW   N/A     72  67  82 N16       30.15R                  
WALL 1E          N/A     73  70  89 W3        30.09R                  
$$

TXZ055-058-074-075-080-082-201400-
TEXAS TECH WEST TEXAS MESONET/FAR WEST/SOUTHWEST MOUNTAINS/TRANS PECOS
  
CITY           SKY/WX    TMP DP  RH WIND       PRES   REMARKS
PRSMN GAP BBNP   N/A     79  63  58 N13       30.06R                  
GUADLPE MTN NP   N/A     64  61  88 NE5       30.29R                  
$$